| time (UTC) | temp C | wind direction | speed KPH | gust KPH | rain 1hr cm | rain 24hr cm | rain mn cm | humidity % | barometer mb |
| 20260504223705 | 12 | 10 | 0.0 | 0.0 | 0.00 | 0.23 | 0.00 | 81 | 1010.2 |
| 20260504223207 | 12 | 10 | 0.0 | 0.0 | 0.00 | 0.23 | 0.00 | 81 | 1010.2 |
| 20260504222706 | 13 | 10 | 0.0 | 0.0 | 0.00 | 0.23 | 0.00 | 81 | 1010.2 |
| 20260504222206 | 13 | 10 | 0.0 | 0.0 | 0.00 | 0.23 | 0.00 | 81 | 1010.3 |
| 20260504221705 | 13 | 10 | 0.0 | 0.0 | 0.00 | 0.23 | 0.00 | 81 | 1010.3 |
| 20260504221207 | 13 | 10 | 0.0 | 0.0 | 0.00 | 0.23 | 0.00 | 81 | 1010.4 |
| 20260504220706 | 13 | 10 | 0.0 | 0.0 | 0.00 | 0.23 | 0.00 | 81 | 1010.4 |
| 20260504220205 | 13 | 10 | 0.0 | 1.6 | 0.03 | 0.23 | 0.23 | 81 | 1010.4 |
| 20260504215705 | 13 | 10 | 0.0 | 1.6 | 0.03 | 0.23 | 0.23 | 81 | 1010.5 |
| 20260504215205 | 13 | 10 | 0.0 | 1.6 | 0.03 | 0.23 | 0.23 | 81 | 1010.5 |
| 20260504214706 | 13 | 10 | 0.0 | 0.0 | 0.03 | 0.23 | 0.23 | 81 | 1010.6 |
| 20260504213205 | 13 | 10 | 0.0 | 0.0 | 0.03 | 0.23 | 0.23 | 81 | 1010.7 |
| 20260504212705 | 13 | 10 | 0.0 | 0.0 | 0.03 | 0.23 | 0.23 | 81 | 1010.6 |
| 20260504212205 | 13 | 10 | 0.0 | 0.0 | 0.03 | 0.23 | 0.23 | 81 | 1010.7 |
| 20260504211705 | 13 | 10 | 0.0 | 0.0 | 0.03 | 0.23 | 0.23 | 81 | 1010.7 |
| 20260504211230 | 13 | 10 | 0.0 | 0.0 | 0.03 | 0.23 | 0.23 | 81 | 1010.8 |
| 20260504210706 | 13 | 10 | 0.0 | 0.0 | 0.00 | 0.20 | 0.20 | 81 | 1010.8 |
| 20260504210209 | 13 | 10 | 0.0 | 1.6 | 0.00 | 0.20 | 0.20 | 81 | 1010.7 |
| 20260504205705 | 13 | 10 | 0.0 | 1.6 | 0.00 | 0.20 | 0.20 | 81 | 1010.9 |
| 20260504205207 | 13 | 10 | 0.0 | 1.6 | 0.00 | 0.20 | 0.20 | 81 | 1010.9 |
| 20260504204711 | 13 | 10 | 0.0 | 0.0 | 0.00 | 0.20 | 0.20 | 81 | 1010.9 |
| 20260504204205 | 13 | 10 | 0.0 | 0.0 | 0.00 | 0.20 | 0.20 | 81 | 1010.9 |
| 20260504203705 | 13 | 10 | 0.0 | 1.6 | 0.00 | 0.20 | 0.20 | 81 | 1010.9 |
| 20260504203205 | 13 | 10 | 0.0 | 3.2 | 0.03 | 0.20 | 0.20 | 81 | 1011.0 |
| 20260504202706 | 13 | 10 | 0.0 | 4.8 | 0.03 | 0.20 | 0.20 | 81 | 1011.0 |
| 20260504202205 | 13 | 10 | 0.0 | 4.8 | 0.03 | 0.20 | 0.20 | 81 | 1011.0 |
| 20260504201205 | 13 | 10 | 0.0 | 6.4 | 0.03 | 0.20 | 0.20 | 81 | 1011.0 |
| 20260504200705 | 13 | 10 | 0.0 | 6.4 | 0.03 | 0.20 | 0.20 | 81 | 1011.0 |
| 20260504200205 | 13 | 10 | 1.6 | 6.4 | 0.03 | 0.20 | 0.20 | 81 | 1011.1 |
| 20260504195705 | 13 | 10 | 1.6 | 6.4 | 0.03 | 0.20 | 0.20 | 81 | 1011.0 |
| 20260504195205 | 13 | 10 | 0.0 | 1.6 | 0.05 | 0.20 | 0.20 | 81 | 1010.9 |
| 20260504194707 | 13 | 10 | 0.0 | 1.6 | 0.05 | 0.20 | 0.20 | 81 | 1010.9 |
| 20260504194206 | 13 | 10 | 0.0 | 1.6 | 0.05 | 0.20 | 0.20 | 81 | 1010.9 |
| 20260504193706 | 13 | 10 | 0.0 | 3.2 | 0.03 | 0.18 | 0.18 | 81 | 1010.8 |
| 20260504193206 | 13 | 10 | 0.0 | 3.2 | 0.03 | 0.18 | 0.18 | 81 | 1010.8 |
| 20260504192705 | 13 | 10 | 0.0 | 3.2 | 0.03 | 0.18 | 0.18 | 81 | 1010.7 |
| 20260504191705 | 13 | 10 | 0.0 | 6.4 | 0.03 | 0.18 | 0.18 | 81 | 1010.7 |
| 20260504190705 | 13 | 10 | 1.6 | 6.4 | 0.03 | 0.18 | 0.18 | 81 | 1010.7 |
| 20260504190205 | 13 | 10 | 0.0 | 3.2 | 0.05 | 0.18 | 0.18 | 81 | 1010.7 |
| 20260504185705 | 13 | 10 | 0.0 | 4.8 | 0.03 | 0.15 | 0.15 | 81 | 1010.7 |
| 20260504185205 | 13 | 10 | 0.0 | 4.8 | 0.03 | 0.15 | 0.15 | 81 | 1010.7 |
| 20260504184706 | 13 | 10 | 0.0 | 4.8 | 0.03 | 0.15 | 0.15 | 81 | 1010.7 |
| 20260504184205 | 13 | 10 | 0.0 | 4.8 | 0.03 | 0.15 | 0.15 | 81 | 1010.7 |
| 20260504183710 | 13 | 10 | 0.0 | 3.2 | 0.03 | 0.15 | 0.15 | 81 | 1010.6 |
| 20260504183211 | 13 | 10 | 0.0 | 4.8 | 0.05 | 0.15 | 0.15 | 81 | 1010.6 |
| 20260504182705 | 13 | 10 | 0.0 | 4.8 | 0.05 | 0.15 | 0.15 | 81 | 1010.6 |
| 20260504182205 | 13 | 10 | 0.0 | 6.4 | 0.05 | 0.15 | 0.15 | 81 | 1010.6 |
| 20260504181205 | 14 | 10 | 1.6 | 8.0 | 0.05 | 0.15 | 0.15 | 82 | 1010.6 |
| 20260504180705 | 14 | 10 | 1.6 | 8.0 | 0.05 | 0.15 | 0.15 | 82 | 1010.6 |
| 20260504180205 | 14 | 10 | 1.6 | 6.4 | 0.03 | 0.15 | 0.15 | 82 | 1010.6 |
| 20260504175705 | 14 | 9 | 0.0 | 4.8 | 0.03 | 0.15 | 0.15 | 82 | 1010.7 |
| 20260504175205 | 14 | 9 | 0.0 | 4.8 | 0.05 | 0.15 | 0.15 | 82 | 1010.7 |
| 20260504174205 | 14 | 9 | 0.0 | 3.2 | 0.05 | 0.15 | 0.15 | 82 | 1010.8 |
| 20260504173705 | 14 | 9 | 0.0 | 6.4 | 0.05 | 0.15 | 0.15 | 82 | 1010.8 |
| 20260504173205 | 14 | 9 | 1.6 | 6.4 | 0.03 | 0.13 | 0.13 | 82 | 1010.8 |
| 20260504172709 | 14 | 9 | 1.6 | 4.8 | 0.05 | 0.13 | 0.13 | 82 | 1010.8 |
| 20260504172205 | 14 | 9 | 0.0 | 3.2 | 0.05 | 0.13 | 0.13 | 82 | 1010.9 |
| 20260504171705 | 14 | 9 | 0.0 | 4.8 | 0.05 | 0.13 | 0.13 | 82 | 1010.9 |
| 20260504171205 | 14 | 9 | 0.0 | 4.8 | 0.05 | 0.13 | 0.13 | 82 | 1010.9 |
| 20260504170705 | 14 | 9 | 0.0 | 4.8 | 0.05 | 0.13 | 0.13 | 82 | 1010.9 |
| 20260504160205 | 15 | 9 | 0.0 | 3.2 | 0.05 | 0.08 | 0.08 | 82 | 1011.3 |
| 20260504150706 | 15 | 228 | 1.6 | 4.8 | 0.05 | 0.05 | 0.05 | 82 | 1011.4 |
| 20260504141205 | 16 | 233 | 0.0 | 4.8 | 0.00 | 0.03 | 0.00 | 82 | 1011.7 |
| 20260504140234 | 16 | 238 | 1.6 | 4.8 | 0.00 | 0.03 | 0.00 | 82 | 1011.7 |
| 20260504130705 | 16 | 238 | 1.6 | 6.4 | 0.00 | 0.05 | 0.00 | 79 | 1011.7 |
| 20260504120205 | 16 | 235 | 3.2 | 9.7 | 0.00 | 0.05 | 0.00 | 79 | 1011.6 |
| 20260504110705 | 16 | 230 | 3.2 | 9.7 | 0.00 | 0.05 | 0.00 | 79 | 1011.9 |
| 20260504081705 | 16 | 229 | 3.2 | 9.7 | 0.00 | 0.05 | 0.00 | 77 | 1011.9 |
| 20260504081205 | 16 | 229 | 3.2 | 8.0 | 0.00 | 0.05 | 0.00 | 78 | 1011.9 |
| 20260504080705 | 16 | 227 | 3.2 | 8.0 | 0.00 | 0.05 | 0.00 | 79 | 1011.8 |
| 20260504070205 | 15 | 211 | 1.6 | 8.0 | 0.00 | 0.05 | 0.00 | 81 | 1011.5 |
| 20260504060207 | 13 | 210 | 1.6 | 6.4 | 0.00 | 0.05 | 0.00 | 82 | 1011.1 |
| 20260504050705 | 11 | 176 | 0.0 | 0.0 | 0.00 | 0.05 | 0.00 | 83 | 1010.7 |
| 20260504050206 | 11 | 176 | 0.0 | 0.0 | 0.00 | 0.05 | 0.00 | 83 | 1010.7 |
| 20260504045705 | 11 | 176 | 0.0 | 0.0 | 0.00 | 0.05 | 0.00 | 83 | 1010.7 |
| 20260504045205 | 11 | 176 | 0.0 | 0.0 | 0.00 | 0.05 | 0.00 | 83 | 1010.6 |
| 20260504044705 | 11 | 176 | 0.0 | 0.0 | 0.00 | 0.05 | 0.00 | 83 | 1010.6 |
| 20260504044205 | 11 | 176 | 0.0 | 0.0 | 0.00 | 0.05 | 0.00 | 83 | 1010.5 |
| 20260504043706 | 11 | 176 | 0.0 | 0.0 | 0.00 | 0.05 | 0.00 | 83 | 1010.5 |
| 20260504042206 | 11 | 176 | 0.0 | 1.6 | 0.00 | 0.05 | 0.00 | 83 | 1010.6 |
| 20260504041705 | 11 | 176 | 0.0 | 1.6 | 0.00 | 0.05 | 0.00 | 83 | 1010.5 |
| 20260504041205 | 12 | 176 | 0.0 | 1.6 | 0.00 | 0.05 | 0.00 | 83 | 1010.6 |
| 20260504040705 | 12 | 176 | 0.0 | 1.6 | 0.00 | 0.05 | 0.00 | 83 | 1010.5 |
| 20260504040205 | 12 | 176 | 0.0 | 4.8 | 0.00 | 0.05 | 0.00 | 83 | 1010.5 |
| 20260504035705 | 12 | 176 | 0.0 | 4.8 | 0.00 | 0.05 | 0.00 | 83 | 1010.5 |
| 20260504035205 | 12 | 176 | 0.0 | 4.8 | 0.00 | 0.05 | 0.00 | 83 | 1010.5 |
| 20260504034205 | 12 | 176 | 0.0 | 4.8 | 0.00 | 0.05 | 0.00 | 83 | 1010.6 |
| 20260504033707 | 12 | 176 | 0.0 | 4.8 | 0.00 | 0.05 | 0.00 | 83 | 1010.6 |
| 20260504033206 | 12 | 176 | 0.0 | 3.2 | 0.00 | 0.05 | 0.00 | 83 | 1010.6 |
| 20260504032708 | 12 | 176 | 0.0 | 4.8 | 0.00 | 0.05 | 0.00 | 83 | 1010.6 |
| 20260504032205 | 12 | 176 | 0.0 | 4.8 | 0.00 | 0.05 | 0.00 | 83 | 1010.5 |
| 20260504031706 | 12 | 176 | 0.0 | 4.8 | 0.00 | 0.05 | 0.00 | 83 | 1010.5 |
| 20260504030706 | 12 | 176 | 0.0 | 4.8 | 0.00 | 0.05 | 0.00 | 83 | 1010.5 |
| 20260504025705 | 12 | 176 | 0.0 | 4.8 | 0.00 | 0.05 | 0.00 | 83 | 1010.3 |
| 20260504025205 | 12 | 176 | 0.0 | 4.8 | 0.00 | 0.05 | 0.00 | 83 | 1010.3 |
| 20260504024705 | 12 | 176 | 0.0 | 12.9 | 0.00 | 0.05 | 0.00 | 83 | 1010.4 |
| 20260504024205 | 12 | 176 | 1.6 | 12.9 | 0.00 | 0.05 | 0.00 | 83 | 1010.4 |
| 20260504023705 | 12 | 176 | 1.6 | 12.9 | 0.00 | 0.05 | 0.00 | 83 | 1010.4 |
| 20260504022705 | 12 | 176 | 1.6 | 4.8 | 0.00 | 0.05 | 0.00 | 83 | 1010.6 |
| 20260504022205 | 12 | 176 | 0.0 | 3.2 | 0.00 | 0.05 | 0.00 | 83 | 1010.5 |
| 20260504021705 | 12 | 176 | 0.0 | 0.0 | 0.00 | 0.05 | 0.00 | 83 | 1010.5 |
| 20260504021205 | 12 | 176 | 0.0 | 0.0 | 0.00 | 0.05 | 0.00 | 83 | 1010.5 |
| 20260504020707 | 12 | 176 | 0.0 | 0.0 | 0.00 | 0.05 | 0.00 | 83 | 1010.5 |
| 20260504015705 | 12 | 176 | 0.0 | 0.0 | 0.00 | 0.05 | 0.00 | 82 | 1010.5 |
| 20260504015205 | 12 | 176 | 0.0 | 0.0 | 0.00 | 0.05 | 0.00 | 82 | 1010.5 |
| 20260504014205 | 12 | 176 | 0.0 | 3.2 | 0.00 | 0.05 | 0.00 | 82 | 1010.5 |
| 20260504013705 | 12 | 176 | 0.0 | 3.2 | 0.00 | 0.05 | 0.00 | 82 | 1010.5 |
| 20260504013205 | 13 | 176 | 0.0 | 1.6 | 0.00 | 0.05 | 0.00 | 82 | 1010.5 |
| 20260504012705 | 13 | 176 | 0.0 | 1.6 | 0.00 | 0.08 | 0.00 | 82 | 1010.5 |
| 20260504012205 | 13 | 176 | 0.0 | 1.6 | 0.00 | 0.08 | 0.00 | 82 | 1010.5 |
| 20260504011704 | 13 | 176 | 0.0 | 1.6 | 0.00 | 0.08 | 0.00 | 82 | 1010.5 |
| 20260504011205 | 13 | 176 | 0.0 | 6.4 | 0.00 | 0.08 | 0.00 | 82 | 1010.5 |
| 20260504010706 | 13 | 176 | 0.0 | 6.4 | 0.00 | 0.08 | 0.00 | 82 | 1010.5 |
| 20260504010205 | 13 | 176 | 1.6 | 6.4 | 0.00 | 0.08 | 0.00 | 82 | 1010.5 |
| 20260504005705 | 13 | 176 | 1.6 | 6.4 | 0.00 | 0.08 | 0.00 | 82 | 1010.5 |
| 20260504005205 | 13 | 176 | 1.6 | 8.0 | 0.00 | 0.08 | 0.00 | 82 | 1010.5 |
| 20260504004706 | 13 | 176 | 1.6 | 8.0 | 0.00 | 0.08 | 0.00 | 82 | 1010.5 |
| 20260504004207 | 13 | 176 | 1.6 | 8.0 | 0.00 | 0.08 | 0.00 | 82 | 1010.4 |
| 20260504003705 | 13 | 176 | 1.6 | 4.8 | 0.00 | 0.08 | 0.00 | 82 | 1010.3 |
| 20260504003205 | 13 | 176 | 0.0 | 4.8 | 0.00 | 0.08 | 0.00 | 82 | 1010.4 |
| 20260504002706 | 13 | 176 | 0.0 | 4.8 | 0.00 | 0.08 | 0.00 | 82 | 1010.3 |
| 20260504002205 | 13 | 176 | 0.0 | 3.2 | 0.00 | 0.08 | 0.00 | 82 | 1010.4 |
| 20260504001705 | 13 | 176 | 0.0 | 3.2 | 0.00 | 0.08 | 0.00 | 82 | 1010.4 |
| 20260504001206 | 13 | 176 | 0.0 | 8.0 | 0.00 | 0.08 | 0.00 | 82 | 1010.5 |
| 20260504000205 | 13 | 176 | 1.6 | 8.0 | 0.00 | 0.10 | 0.00 | 82 | 1010.5 |
| 20260503235706 | 13 | 176 | 1.6 | 8.0 | 0.00 | 0.10 | 0.00 | 82 | 1010.5 |
| 20260503235227 | 13 | 176 | 1.6 | 12.9 | 0.00 | 0.10 | 0.00 | 82 | 1010.5 |
| 20260503234207 | 13 | 176 | 3.2 | 12.9 | 0.00 | 0.10 | 0.00 | 82 | 1010.5 |
| 20260503233708 | 13 | 176 | 3.2 | 11.3 | 0.00 | 0.10 | 0.00 | 82 | 1010.5 |
| 20260503233205 | 13 | 176 | 3.2 | 8.0 | 0.00 | 0.10 | 0.00 | 82 | 1010.5 |
| 20260503232205 | 13 | 176 | 3.2 | 8.0 | 0.00 | 0.10 | 0.00 | 82 | 1010.5 |
| 20260503231205 | 12 | 176 | 0.0 | 4.8 | 0.00 | 0.10 | 0.00 | 82 | 1010.5 |
| 20260503230706 | 13 | 176 | 0.0 | 1.6 | 0.00 | 0.13 | 0.00 | 82 | 1010.6 |
| 20260503230205 | 13 | 176 | 0.0 | 1.6 | 0.00 | 0.13 | 0.00 | 82 | 1010.6 |
| 20260503225705 | 13 | 176 | 0.0 | 1.6 | 0.00 | 0.13 | 0.00 | 82 | 1010.6 |
| 20260503225206 | 13 | 176 | 0.0 | 3.2 | 0.00 | 0.13 | 0.00 | 82 | 1010.7 |
| 20260503224705 | 13 | 176 | 0.0 | 3.2 | 0.00 | 0.13 | 0.00 | 82 | 1010.7 |
| 20260503224206 | 13 | 176 | 0.0 | 6.4 | 0.00 | 0.13 | 0.00 | 82 | 1010.6 |